Location: Edinburgh
(55.9500°N, 3.1600°W)
Time: 16:50:46
(UTC+00:00)

Envisat - Pass Details

Date: 15 October 2017
Orbit: 764 x 766 km, 98.2° (Epoch: 13 December)

Event Time Altitude Azimuth Distance (km) Brightness Sun altitude
Exits shadow 19:42:25 15° 123° (ESE) 1,960 4.6 -13.4°
Maximum altitude 19:46:07 38° 62° (ENE) 1,156 3.5 -14.0°
Drops below altitude 10° 19:50:49 10° 355° (N) 2,321 5.6 -14.6°
Sets 19:53:15 0° 348° (NNW) 3,251 6.5 -15.0°
